Time,TemperatureF,DewpointF,PressureIn,WindDirection,WindDirectionDegrees,WindSpeedMPH,WindSpeedGustMPH,Humidity,HourlyPrecipIn,Conditions,Clouds,dailyrainin,SolarRadiationWatts/m^2,SoftwareType,DateUTC
2013-03-17 00:00:00,49.9,45.6,30.13,SE,135,2.0,-999.0,85,0.00,,,0.00,0,Wunderground v.1.15,2013-03-17 07:00:00,
2013-03-17 00:04:00,49.8,45.5,30.13,SE,125,3.0,4.0,85,0.00,,,0.00,0,Wunderground v.1.15,2013-03-17 07:04:00,
2013-03-17 00:05:00,49.9,45.6,30.13,SE,135,2.0,-999.0,85,0.00,,,0.00,0,Wunderground v.1.15,2013-03-17 07:05:00,
2013-03-17 00:10:00,49.9,45.6,30.13,SE,135,0.0,-999.0,85,0.00,,,0.00,0,Wunderground v.1.15,2013-03-17 07:10:00,
2013-03-17 00:15:00,50.1,45.1,30.13,SE,135,2.0,-999.0,83,0.00,,,0.00,0,Wunderground v.1.15,2013-03-17 07:15:00,
2013-03-17 00:20:00,50.4,45.7,30.13,SE,135,2.0,-999.0,84,0.00,,,0.00,0,Wunderground v.1.15,2013-03-17 07:20:00,
2013-03-17 00:25:00,50.3,45.6,30.13,SE,135,8.0,-999.0,84,0.00,,,0.00,0,Wunderground v.1.15,2013-03-17 07:25:00,
2013-03-17 00:30:00,49.9,45.6,30.12,SE,135,6.0,-999.0,85,0.00,,,0.00,0,Wunderground v.1.15,2013-03-17 07:30:00,
2013-03-17 00:35:00,49.5,45.5,30.13,SE,135,5.0,-999.0,86,0.00,,,0.00,0,Wunderground v.1.15,2013-03-17 07:35:00,
2013-03-17 00:40:00,49.4,45.4,30.13,SE,135,3.0,-999.0,86,0.00,,,0.00,0,Wunderground v.1.15,2013-03-17 07:40:00,
2013-03-17 00:45:00,49.4,45.7,30.13,SSE,158,4.0,-999.0,87,0.00,,,0.00,0,Wunderground v.1.15,2013-03-17 07:45:00,
2013-03-17 00:50:00,49.3,45.6,30.13,SE,135,6.0,-999.0,87,0.00,,,0.00,0,Wunderground v.1.15,2013-03-17 07:50:00,
2013-03-17 00:55:00,49.2,45.5,30.13,SE,135,5.0,-999.0,87,0.00,,,0.00,0,Wunderground v.1.15,2013-03-17 07:55:00,
2013-03-17 01:00:00,49.1,45.4,30.13,SSE,158,1.0,-999.0,87,0.00,,,0.00,0,Wunderground v.1.15,2013-03-17 08:00:00,
2013-03-17 01:05:00,49.1,45.4,30.13,N/A,-737280,0.0,-999.0,87,0.00,,,0.00,0,Wunderground v.1.15,2013-03-17 08:05:00,
2013-03-17 01:10:00,49.2,45.2,30.13,N/A,-737280,0.0,-999.0,86,0.00,,,0.00,0,Wunderground v.1.15,2013-03-17 08:10:00,
2013-03-17 01:15:00,49.4,45.4,30.13,SSE,158,1.0,-999.0,86,0.00,,,0.00,0,Wunderground v.1.15,2013-03-17 08:15:00,
2013-03-17 01:20:00,49.5,45.5,30.13,SSE,158,3.0,-999.0,86,0.00,,,0.00,0,Wunderground v.1.15,2013-03-17 08:20:00,
2013-03-17 01:30:00,49.3,45.3,30.13,SE,135,5.0,-999.0,86,0.00,,,0.00,0,Wunderground v.1.15,2013-03-17 08:30:00,
2013-03-17 01:35:00,49.1,45.4,30.13,SE,135,6.0,-999.0,87,0.00,,,0.00,0,Wunderground v.1.15,2013-03-17 08:35:00,
2013-03-17 01:40:00,48.9,45.2,30.13,ESE,113,7.0,-999.0,87,0.00,,,0.00,0,Wunderground v.1.15,2013-03-17 08:40:00,
2013-03-17 01:45:00,48.8,45.4,30.13,ESE,113,6.0,-999.0,88,0.00,,,0.00,0,Wunderground v.1.15,2013-03-17 08:45:00,
2013-03-17 01:50:00,48.8,45.4,30.13,ESE,113,5.0,-999.0,88,0.00,,,0.00,0,Wunderground v.1.15,2013-03-17 08:50:00,
2013-03-17 01:55:00,49.0,45.3,30.13,SE,135,4.0,-999.0,87,0.00,,,0.00,0,Wunderground v.1.15,2013-03-17 08:55:00,
2013-03-17 02:00:00,49.1,45.4,30.13,SE,135,4.0,-999.0,87,0.00,,,0.00,0,Wunderground v.1.15,2013-03-17 09:00:00,
2013-03-17 02:05:00,49.2,45.2,30.13,SE,135,4.0,-999.0,86,0.00,,,0.00,0,Wunderground v.1.15,2013-03-17 09:05:00,
2013-03-17 02:10:00,49.3,45.0,30.13,SE,135,4.0,-999.0,85,0.00,,,0.00,0,Wunderground v.1.15,2013-03-17 09:10:00,
2013-03-17 02:15:00,49.2,44.9,30.13,SE,135,6.0,-999.0,85,0.00,,,0.00,0,Wunderground v.1.15,2013-03-17 09:15:00,
2013-03-17 02:20:00,49.1,45.1,30.13,SE,135,6.0,-999.0,86,0.00,,,0.00,0,Wunderground v.1.15,2013-03-17 09:20:00,
2013-03-17 02:25:00,48.9,45.2,30.13,SE,135,6.0,-999.0,87,0.00,,,0.00,0,Wunderground v.1.15,2013-03-17 09:25:00,
2013-03-17 02:30:00,48.7,45.3,30.13,SE,135,6.0,-999.0,88,0.00,,,0.00,0,Wunderground v.1.15,2013-03-17 09:30:00,
2013-03-17 02:35:00,48.5,45.1,30.13,ESE,113,7.0,-999.0,88,0.00,,,0.00,0,Wunderground v.1.15,2013-03-17 09:35:00,
2013-03-17 02:40:00,48.4,45.3,30.13,ESE,113,7.0,-999.0,89,0.00,,,0.00,0,Wunderground v.1.15,2013-03-17 09:40:00,
2013-03-17 02:45:00,48.3,45.2,30.13,SE,135,6.0,-999.0,89,0.00,,,0.00,0,Wunderground v.1.15,2013-03-17 09:45:00,
2013-03-17 02:50:00,48.2,45.1,30.13,SE,135,5.0,-999.0,89,0.00,,,0.00,0,Wunderground v.1.15,2013-03-17 09:50:00,
2013-03-17 02:55:00,48.3,45.2,30.13,SE,135,5.0,-999.0,89,0.00,,,0.00,0,Wunderground v.1.15,2013-03-17 09:55:00,
2013-03-17 03:00:00,48.3,45.2,30.13,SE,135,5.0,-999.0,89,0.00,,,0.00,0,Wunderground v.1.15,2013-03-17 10:00:00,
2013-03-17 03:05:00,48.4,45.3,30.13,SE,135,5.0,-999.0,89,0.00,,,0.00,0,Wunderground v.1.15,2013-03-17 10:05:00,
2013-03-17 03:15:00,48.5,45.1,30.13,SE,135,4.0,-999.0,88,0.00,,,0.00,0,Wunderground v.1.15,2013-03-17 10:15:00,
2013-03-17 03:20:00,48.5,45.1,30.13,SE,135,4.0,-999.0,88,0.00,,,0.00,0,Wunderground v.1.15,2013-03-17 10:20:00,
2013-03-17 03:30:00,48.5,45.1,30.13,SE,135,6.0,-999.0,88,0.00,,,0.00,0,Wunderground v.1.15,2013-03-17 10:30:00,
2013-03-17 03:35:00,48.5,45.1,30.13,SE,135,5.0,-999.0,88,0.00,,,0.00,0,Wunderground v.1.15,2013-03-17 10:35:00,
2013-03-17 03:40:00,48.4,45.3,30.13,ESE,113,5.0,-999.0,89,0.00,,,0.00,0,Wunderground v.1.15,2013-03-17 10:40:00,
2013-03-17 03:45:00,48.3,45.2,30.13,SE,135,4.0,-999.0,89,0.00,,,0.00,0,Wunderground v.1.15,2013-03-17 10:45:00,
2013-03-17 03:50:00,48.3,45.2,30.13,SE,135,5.0,-999.0,89,0.00,,,0.00,0,Wunderground v.1.15,2013-03-17 10:50:00,
2013-03-17 03:55:00,48.2,45.1,30.13,SE,135,5.0,-999.0,89,0.00,,,0.00,0,Wunderground v.1.15,2013-03-17 10:55:00,
2013-03-17 04:00:00,48.2,45.1,30.13,SE,135,6.0,-999.0,89,0.00,,,0.00,0,Wunderground v.1.15,2013-03-17 11:00:00,
2013-03-17 04:05:00,47.9,45.1,30.13,SE,135,5.0,-999.0,90,0.00,,,0.00,0,Wunderground v.1.15,2013-03-17 11:05:00,
2013-03-17 04:10:00,47.8,45.0,30.13,SE,135,5.0,-999.0,90,0.00,,,0.00,0,Wunderground v.1.15,2013-03-17 11:10:00,
2013-03-17 04:15:00,47.7,44.9,30.13,SE,135,5.0,-999.0,90,0.00,,,0.00,0,Wunderground v.1.15,2013-03-17 11:15:00,
2013-03-17 04:20:00,47.7,45.2,30.12,SE,135,5.0,-999.0,91,0.00,,,0.00,0,Wunderground v.1.15,2013-03-17 11:20:00,
2013-03-17 04:25:00,47.6,45.1,30.12,SE,135,6.0,-999.0,91,0.00,,,0.00,0,Wunderground v.1.15,2013-03-17 11:25:00,
2013-03-17 04:30:00,47.6,45.1,30.11,ESE,113,6.0,-999.0,91,0.00,,,0.00,0,Wunderground v.1.15,2013-03-17 11:30:00,
2013-03-17 04:35:00,47.6,45.1,30.11,SE,135,6.0,-999.0,91,0.00,,,0.00,0,Wunderground v.1.15,2013-03-17 11:35:00,
2013-03-17 04:40:00,47.6,45.1,30.11,SE,135,6.0,-999.0,91,0.00,,,0.00,0,Wunderground v.1.15,2013-03-17 11:40:00,
2013-03-17 04:45:00,47.6,45.1,30.11,SE,135,6.0,-999.0,91,0.00,,,0.00,0,Wunderground v.1.15,2013-03-17 11:45:00,
2013-03-17 04:50:00,47.5,45.0,30.11,SE,135,5.0,-999.0,91,0.00,,,0.00,0,Wunderground v.1.15,2013-03-17 11:50:00,
2013-03-17 04:55:00,47.5,45.0,30.11,ESE,113,6.0,-999.0,91,0.00,,,0.00,0,Wunderground v.1.15,2013-03-17 11:55:00,
2013-03-17 05:00:00,47.4,44.9,30.11,SE,135,5.0,-999.0,91,0.00,,,0.00,0,Wunderground v.1.15,2013-03-17 12:00:00,
2013-03-17 05:05:00,47.4,44.9,30.11,SE,135,5.0,-999.0,91,0.00,,,0.00,0,Wunderground v.1.15,2013-03-17 12:05:00,
2013-03-17 05:10:00,47.4,44.9,30.11,SE,135,6.0,-999.0,91,0.00,,,0.00,0,Wunderground v.1.15,2013-03-17 12:10:00,
2013-03-17 05:15:00,47.3,44.8,30.11,SE,135,7.0,-999.0,91,0.00,,,0.00,0,Wunderground v.1.15,2013-03-17 12:15:00,
2013-03-17 05:20:00,47.3,44.8,30.11,SE,135,5.0,-999.0,91,0.00,,,0.00,0,Wunderground v.1.15,2013-03-17 12:20:00,
2013-03-17 05:25:00,47.2,45.0,30.12,ESE,113,4.0,-999.0,92,0.00,,,0.00,0,Wunderground v.1.15,2013-03-17 12:25:00,
2013-03-17 05:30:00,47.1,44.9,30.12,SE,135,5.0,-999.0,92,0.00,,,0.00,0,Wunderground v.1.15,2013-03-17 12:30:00,
2013-03-17 05:35:00,47.2,45.0,30.12,ESE,113,7.0,-999.0,92,0.00,,,0.00,0,Wunderground v.1.15,2013-03-17 12:35:00,
2013-03-17 05:40:00,47.2,45.0,30.11,ESE,113,7.0,-999.0,92,0.00,,,0.00,0,Wunderground v.1.15,2013-03-17 12:40:00,
2013-03-17 05:45:00,47.3,44.8,30.11,SE,135,5.0,-999.0,91,0.00,,,0.00,0,Wunderground v.1.15,2013-03-17 12:45:00,
2013-03-17 05:50:00,47.3,44.8,30.11,SE,135,5.0,-999.0,91,0.00,,,0.00,0,Wunderground v.1.15,2013-03-17 12:50:00,
2013-03-17 05:55:00,47.4,44.6,30.11,SE,135,5.0,-999.0,90,0.00,,,0.00,0,Wunderground v.1.15,2013-03-17 12:55:00,
2013-03-17 06:00:00,47.4,44.6,30.11,SE,135,5.0,-999.0,90,0.00,,,0.00,0,Wunderground v.1.15,2013-03-17 13:00:00,
2013-03-17 06:05:00,47.5,44.4,30.11,SE,135,6.0,-999.0,89,0.00,,,0.00,0,Wunderground v.1.15,2013-03-17 13:05:00,
2013-03-17 06:10:00,47.6,44.5,30.11,SE,135,5.0,-999.0,89,0.00,,,0.00,0,Wunderground v.1.15,2013-03-17 13:10:00,
2013-03-17 06:15:00,47.7,44.6,30.11,SE,135,6.0,-999.0,89,0.00,,,0.00,0,Wunderground v.1.15,2013-03-17 13:15:00,
2013-03-17 06:20:00,47.6,44.2,30.11,SE,135,5.0,-999.0,88,0.00,,,0.00,0,Wunderground v.1.15,2013-03-17 13:20:00,
2013-03-17 06:25:00,47.6,44.2,30.11,SE,135,5.0,-999.0,88,0.00,,,0.00,0,Wunderground v.1.15,2013-03-17 13:25:00,
2013-03-17 06:30:00,47.6,44.2,30.11,SE,135,5.0,-999.0,88,0.00,,,0.00,0,Wunderground v.1.15,2013-03-17 13:30:00,
2013-03-17 06:35:00,47.5,43.8,30.12,SE,135,4.0,-999.0,87,0.00,,,0.00,0,Wunderground v.1.15,2013-03-17 13:35:00,
2013-03-17 06:40:00,47.5,43.8,30.12,SE,135,4.0,-999.0,87,0.00,,,0.00,0,Wunderground v.1.15,2013-03-17 13:40:00,
2013-03-17 06:45:00,47.4,44.0,30.13,SSE,158,5.0,-999.0,88,0.00,,,0.00,0,Wunderground v.1.15,2013-03-17 13:45:00,
2013-03-17 06:50:00,47.3,43.9,30.13,SSE,158,6.0,-999.0,88,0.00,,,0.00,0,Wunderground v.1.15,2013-03-17 13:50:00,
2013-03-17 06:55:00,47.2,44.1,30.13,SE,135,5.0,-999.0,89,0.00,,,0.00,0,Wunderground v.1.15,2013-03-17 13:55:00,
2013-03-17 07:00:00,47.0,43.9,30.14,SE,135,3.0,-999.0,89,0.00,,,0.00,0,Wunderground v.1.15,2013-03-17 14:00:00,
2013-03-17 07:05:00,46.8,44.0,30.13,ESE,113,5.0,-999.0,90,0.00,,,0.00,0,Wunderground v.1.15,2013-03-17 14:05:00,
2013-03-17 07:10:00,46.7,43.9,30.14,SE,135,5.0,-999.0,90,0.00,,,0.00,0,Wunderground v.1.15,2013-03-17 14:10:00,
2013-03-17 07:15:00,46.6,44.1,30.14,SE,135,4.0,-999.0,91,0.00,,,0.00,1,Wunderground v.1.15,2013-03-17 14:15:00,
2013-03-17 07:20:00,46.5,44.0,30.14,SE,135,5.0,-999.0,91,0.00,,,0.00,6,Wunderground v.1.15,2013-03-17 14:20:00,
2013-03-17 07:25:00,46.5,44.0,30.14,ESE,113,5.0,-999.0,91,0.00,,,0.00,10,Wunderground v.1.15,2013-03-17 14:25:00,
2013-03-17 07:30:00,46.5,44.0,30.14,ESE,113,4.0,-999.0,91,0.00,,,0.00,12,Wunderground v.1.15,2013-03-17 14:30:00,
2013-03-17 07:35:00,46.6,44.4,30.14,ESE,113,4.0,-999.0,92,0.00,,,0.00,16,Wunderground v.1.15,2013-03-17 14:35:00,
2013-03-17 07:40:00,46.6,44.4,30.14,ESE,113,3.0,-999.0,92,0.00,,,0.00,20,Wunderground v.1.15,2013-03-17 14:40:00,
2013-03-17 07:45:00,46.7,44.5,30.14,ESE,113,0.0,-999.0,92,0.00,,,0.00,25,Wunderground v.1.15,2013-03-17 14:45:00,
2013-03-17 07:50:00,46.9,45.0,30.15,N/A,-737280,0.0,-999.0,93,0.00,,,0.00,29,Wunderground v.1.15,2013-03-17 14:50:00,
2013-03-17 07:55:00,47.0,45.1,30.15,N/A,-737280,0.0,-999.0,93,0.00,,,0.00,44,Wunderground v.1.15,2013-03-17 14:55:00,
2013-03-17 08:00:00,47.2,45.3,30.15,N/A,-737280,0.0,-999.0,93,0.00,,,0.00,64,Wunderground v.1.15,2013-03-17 15:00:00,
2013-03-17 08:05:00,47.4,45.5,30.15,N/A,-737280,0.0,-999.0,93,0.00,,,0.00,86,Wunderground v.1.15,2013-03-17 15:05:00,
2013-03-17 08:10:00,47.5,45.3,30.16,N/A,-737280,0.0,-999.0,92,0.00,,,0.00,111,Wunderground v.1.15,2013-03-17 15:10:00,
2013-03-17 08:15:00,47.6,45.4,30.16,N/A,-737280,0.0,-999.0,92,0.00,,,0.00,130,Wunderground v.1.15,2013-03-17 15:15:00,
2013-03-17 08:20:00,47.7,45.5,30.16,N/A,-737280,0.0,-999.0,92,0.00,,,0.00,139,Wunderground v.1.15,2013-03-17 15:20:00,
2013-03-17 08:25:00,47.8,45.6,30.15,N/A,-737280,0.0,-999.0,92,0.00,,,0.00,143,Wunderground v.1.15,2013-03-17 15:25:00,
2013-03-17 08:30:00,47.8,45.3,30.15,N/A,-737280,0.0,-999.0,91,0.00,,,0.00,105,Wunderground v.1.15,2013-03-17 15:30:00,
2013-03-17 08:35:00,47.7,45.2,30.15,N/A,-737280,0.0,-999.0,91,0.00,,,0.00,123,Wunderground v.1.15,2013-03-17 15:35:00,
2013-03-17 08:40:00,47.7,45.2,30.15,N/A,-737280,0.0,-999.0,91,0.00,,,0.00,137,Wunderground v.1.15,2013-03-17 15:40:00,
2013-03-17 08:45:00,47.9,45.4,30.15,N/A,-737280,0.0,-999.0,91,0.00,,,0.00,184,Wunderground v.1.15,2013-03-17 15:45:00,
2013-03-17 08:50:00,47.9,45.1,30.15,N/A,-737280,0.0,-999.0,90,0.00,,,0.00,215,Wunderground v.1.15,2013-03-17 15:50:00,
2013-03-17 08:55:00,48.1,45.3,30.15,N/A,-737280,0.0,-999.0,90,0.00,,,0.00,241,Wunderground v.1.15,2013-03-17 15:55:00,
2013-03-17 09:00:00,48.3,45.2,30.15,N/A,-737280,0.0,-999.0,89,0.00,,,0.00,253,Wunderground v.1.15,2013-03-17 16:00:00,
2013-03-17 09:05:00,48.5,45.1,30.16,N/A,-737280,0.0,-999.0,88,0.00,,,0.00,284,Wunderground v.1.15,2013-03-17 16:05:00,
2013-03-17 09:10:00,48.7,45.0,30.16,N/A,-737280,0.0,-999.0,87,0.00,,,0.00,304,Wunderground v.1.15,2013-03-17 16:10:00,
2013-03-17 09:15:00,48.9,45.2,30.16,N/A,-737280,0.0,-999.0,87,0.00,,,0.00,344,Wunderground v.1.15,2013-03-17 16:15:00,
2013-03-17 09:20:00,49.3,45.6,30.16,N/A,-737280,0.0,-999.0,87,0.00,,,0.00,326,Wunderground v.1.15,2013-03-17 16:20:00,
2013-03-17 09:25:00,49.6,45.6,30.16,N/A,-737280,0.0,-999.0,86,0.00,,,0.00,303,Wunderground v.1.15,2013-03-17 16:25:00,
2013-03-17 09:30:00,49.9,45.6,30.16,N/A,-737280,0.0,-999.0,85,0.00,,,0.00,314,Wunderground v.1.15,2013-03-17 16:30:00,
2013-03-17 09:35:00,50.1,45.8,30.16,N/A,-737280,0.0,-999.0,85,0.00,,,0.00,365,Wunderground v.1.15,2013-03-17 16:35:00,
2013-03-17 09:40:00,50.3,45.6,30.16,SW,225,0.0,-999.0,84,0.00,,,0.00,337,Wunderground v.1.15,2013-03-17 16:40:00,
2013-03-17 09:45:00,50.5,45.8,30.16,N/A,-737280,0.0,-999.0,84,0.00,,,0.00,346,Wunderground v.1.15,2013-03-17 16:45:00,
2013-03-17 09:50:00,50.6,45.9,30.16,SW,225,0.0,-999.0,84,0.00,,,0.00,318,Wunderground v.1.15,2013-03-17 16:50:00,
2013-03-17 09:55:00,50.8,46.1,30.15,SSW,203,0.0,-999.0,84,0.00,,,0.00,167,Wunderground v.1.15,2013-03-17 16:55:00,
2013-03-17 10:00:00,50.9,46.2,30.15,SSW,203,2.0,-999.0,84,0.00,,,0.00,216,Wunderground v.1.15,2013-03-17 17:00:00,
2013-03-17 10:05:00,51.0,46.6,30.16,South,180,0.0,-999.0,85,0.00,,,0.00,376,Wunderground v.1.15,2013-03-17 17:05:00,
2013-03-17 10:10:00,51.1,46.4,30.16,N/A,-737280,0.0,-999.0,84,0.00,,,0.00,384,Wunderground v.1.15,2013-03-17 17:10:00,
2013-03-17 10:15:00,51.3,46.3,30.16,N/A,-737280,0.0,-999.0,83,0.00,,,0.00,412,Wunderground v.1.15,2013-03-17 17:15:00,
2013-03-17 10:20:00,51.6,46.6,30.16,SSW,203,0.0,-999.0,83,0.00,,,0.00,412,Wunderground v.1.15,2013-03-17 17:20:00,
2013-03-17 10:25:00,52.0,46.7,30.17,N/A,-737280,0.0,-999.0,82,0.00,,,0.00,464,Wunderground v.1.15,2013-03-17 17:25:00,
2013-03-17 10:30:00,52.2,46.2,30.17,West,270,1.0,-999.0,80,0.00,,,0.00,507,Wunderground v.1.15,2013-03-17 17:30:00,
2013-03-17 10:35:00,52.4,45.7,30.17,WNW,293,1.0,-999.0,78,0.00,,,0.00,509,Wunderground v.1.15,2013-03-17 17:35:00,
2013-03-17 10:40:00,52.3,45.3,30.17,NW,315,3.0,-999.0,77,0.00,,,0.00,432,Wunderground v.1.15,2013-03-17 17:40:00,
2013-03-17 10:45:00,52.2,45.2,30.17,West,270,1.0,-999.0,77,0.00,,,0.00,444,Wunderground v.1.15,2013-03-17 17:45:00,
2013-03-17 10:50:00,52.3,45.0,30.17,West,270,3.0,-999.0,76,0.00,,,0.00,502,Wunderground v.1.15,2013-03-17 17:50:00,
2013-03-17 10:55:00,52.2,44.5,30.16,West,270,2.0,-999.0,75,0.00,,,0.00,575,Wunderground v.1.15,2013-03-17 17:55:00,
2013-03-17 11:00:00,52.3,45.0,30.17,NNW,338,2.0,-999.0,76,0.00,,,0.00,608,Wunderground v.1.15,2013-03-17 18:00:00,
2013-03-17 11:05:00,52.7,45.3,30.16,N/A,-737280,0.0,-999.0,76,0.00,,,0.00,629,Wunderground v.1.15,2013-03-17 18:05:00,
2013-03-17 11:10:00,53.1,45.7,30.16,N/A,-737280,0.0,-999.0,76,0.00,,,0.00,642,Wunderground v.1.15,2013-03-17 18:10:00,
2013-03-17 11:15:00,53.3,45.2,30.16,West,270,3.0,-999.0,74,0.00,,,0.00,651,Wunderground v.1.15,2013-03-17 18:15:00,
2013-03-17 11:20:00,53.5,45.4,30.16,West,270,1.0,-999.0,74,0.00,,,0.00,658,Wunderground v.1.15,2013-03-17 18:20:00,
2013-03-17 11:25:00,53.7,45.6,30.16,NW,315,0.0,-999.0,74,0.00,,,0.00,666,Wunderground v.1.15,2013-03-17 18:25:00,
2013-03-17 11:30:00,53.8,45.3,30.16,NW,315,1.0,-999.0,73,0.00,,,0.00,681,Wunderground v.1.15,2013-03-17 18:30:00,
2013-03-17 11:35:00,53.9,45.4,30.16,N/A,-737280,0.0,-999.0,73,0.00,,,0.00,686,Wunderground v.1.15,2013-03-17 18:35:00,
2013-03-17 11:40:00,54.2,45.4,30.16,WNW,293,2.0,-999.0,72,0.00,,,0.00,699,Wunderground v.1.15,2013-03-17 18:40:00,
2013-03-17 11:45:00,54.5,45.7,30.16,NNW,338,3.0,-999.0,72,0.00,,,0.00,703,Wunderground v.1.15,2013-03-17 18:45:00,
2013-03-17 11:50:00,54.5,45.3,30.16,North,0,3.0,-999.0,71,0.00,,,0.00,704,Wunderground v.1.15,2013-03-17 18:50:00,
2013-03-17 11:55:00,54.9,46.0,30.15,NE,45,1.0,-999.0,72,0.00,,,0.00,705,Wunderground v.1.15,2013-03-17 18:55:00,
2013-03-17 12:00:00,55.3,46.1,30.15,WSW,248,1.0,-999.0,71,0.00,,,0.00,601,Wunderground v.1.15,2013-03-17 19:00:00,
2013-03-17 12:05:00,55.5,45.9,30.15,WNW,293,5.0,-999.0,70,0.00,,,0.00,671,Wunderground v.1.15,2013-03-17 19:05:00,
2013-03-17 12:10:00,55.5,46.2,30.15,WNW,293,4.0,-999.0,71,0.00,,,0.00,583,Wunderground v.1.15,2013-03-17 19:10:00,
2013-03-17 12:15:00,55.6,46.0,30.15,WNW,293,4.0,-999.0,70,0.00,,,0.00,561,Wunderground v.1.15,2013-03-17 19:15:00,
2013-03-17 12:20:00,55.8,46.2,30.14,NNW,338,4.0,-999.0,70,0.00,,,0.00,543,Wunderground v.1.15,2013-03-17 19:20:00,
2013-03-17 12:25:00,56.1,46.4,30.14,NNW,338,0.0,-999.0,70,0.00,,,0.00,563,Wunderground v.1.15,2013-03-17 19:25:00,
2013-03-17 12:30:00,56.6,46.5,30.14,WNW,293,1.0,-999.0,69,0.00,,,0.00,586,Wunderground v.1.15,2013-03-17 19:30:00,
2013-03-17 12:35:00,56.9,46.1,30.13,WNW,293,3.0,-999.0,67,0.00,,,0.00,627,Wunderground v.1.15,2013-03-17 19:35:00,
2013-03-17 12:40:00,57.1,46.2,30.13,WNW,293,3.0,-999.0,67,0.00,,,0.00,687,Wunderground v.1.15,2013-03-17 19:40:00,
2013-03-17 12:45:00,57.4,46.1,30.14,WNW,293,1.0,-999.0,66,0.00,,,0.00,723,Wunderground v.1.15,2013-03-17 19:45:00,
2013-03-17 12:50:00,57.9,46.6,30.14,SW,225,1.0,-999.0,66,0.00,,,0.00,689,Wunderground v.1.15,2013-03-17 19:50:00,
2013-03-17 12:55:00,58.3,46.2,30.13,SW,225,4.0,-999.0,64,0.00,,,0.00,787,Wunderground v.1.15,2013-03-17 19:55:00,
2013-03-17 13:00:00,58.6,46.9,30.13,SW,225,3.0,-999.0,65,0.00,,,0.00,779,Wunderground v.1.15,2013-03-17 20:00:00,
2013-03-17 13:05:00,59.0,46.8,30.13,SW,225,2.0,-999.0,64,0.00,,,0.00,778,Wunderground v.1.15,2013-03-17 20:05:00,
2013-03-17 13:10:00,59.6,47.0,30.13,SSE,158,0.0,-999.0,63,0.00,,,0.00,800,Wunderground v.1.15,2013-03-17 20:10:00,
2013-03-17 13:15:00,59.8,46.7,30.13,SW,225,2.0,-999.0,62,0.00,,,0.00,799,Wunderground v.1.15,2013-03-17 20:15:00,
2013-03-17 13:20:00,60.2,46.7,30.13,South,180,1.0,-999.0,61,0.00,,,0.00,773,Wunderground v.1.15,2013-03-17 20:20:00,
2013-03-17 13:25:00,60.3,46.8,30.13,WSW,248,2.0,-999.0,61,0.00,,,0.00,724,Wunderground v.1.15,2013-03-17 20:25:00,
2013-03-17 13:30:00,60.4,46.9,30.13,WSW,248,3.0,-999.0,61,0.00,,,0.00,659,Wunderground v.1.15,2013-03-17 20:30:00,
2013-03-17 13:35:00,60.3,46.8,30.13,South,180,4.0,-999.0,61,0.00,,,0.00,609,Wunderground v.1.15,2013-03-17 20:35:00,
2013-03-17 13:40:00,60.4,46.4,30.13,SW,225,2.0,-999.0,60,0.00,,,0.00,604,Wunderground v.1.15,2013-03-17 20:40:00,
2013-03-17 13:45:00,60.3,45.9,30.12,WSW,248,6.0,-999.0,59,0.00,,,0.00,658,Wunderground v.1.15,2013-03-17 20:45:00,
2013-03-17 13:50:00,60.1,45.7,30.12,WSW,248,2.0,-999.0,59,0.00,,,0.00,677,Wunderground v.1.15,2013-03-17 20:50:00,
2013-03-17 13:55:00,59.8,45.0,30.12,WSW,248,4.0,-999.0,58,0.00,,,0.00,743,Wunderground v.1.15,2013-03-17 20:55:00,
2013-03-17 14:00:00,59.6,44.8,30.11,WSW,248,5.0,-999.0,58,0.00,,,0.00,771,Wunderground v.1.15,2013-03-17 21:00:00,
2013-03-17 14:05:00,59.4,44.6,30.11,West,270,7.0,-999.0,58,0.00,,,0.00,786,Wunderground v.1.15,2013-03-17 21:05:00,
2013-03-17 14:10:00,58.8,44.5,30.11,West,270,6.0,-999.0,59,0.00,,,0.00,792,Wunderground v.1.15,2013-03-17 21:10:00,
2013-03-17 14:15:00,58.6,44.3,30.11,WNW,293,5.0,-999.0,59,0.00,,,0.00,782,Wunderground v.1.15,2013-03-17 21:15:00,
2013-03-17 14:20:00,58.5,43.8,30.11,NW,315,9.0,-999.0,58,0.00,,,0.00,779,Wunderground v.1.15,2013-03-17 21:20:00,
2013-03-17 14:25:00,58.5,43.3,30.11,WSW,248,5.0,-999.0,57,0.00,,,0.00,774,Wunderground v.1.15,2013-03-17 21:25:00,
2013-03-17 14:30:00,58.7,43.5,30.11,West,270,6.0,-999.0,57,0.00,,,0.00,753,Wunderground v.1.15,2013-03-17 21:30:00,
2013-03-17 14:35:00,58.8,43.1,30.10,WNW,293,7.0,-999.0,56,0.00,,,0.00,736,Wunderground v.1.15,2013-03-17 21:35:00,
2013-03-17 14:40:00,58.7,42.6,30.10,WNW,293,7.0,-999.0,55,0.00,,,0.00,739,Wunderground v.1.15,2013-03-17 21:40:00,
2013-03-17 14:45:00,58.7,42.6,30.11,West,270,7.0,-999.0,55,0.00,,,0.00,742,Wunderground v.1.15,2013-03-17 21:45:00,
2013-03-17 14:50:00,59.0,43.3,30.10,WSW,248,4.0,-999.0,56,0.00,,,0.00,694,Wunderground v.1.15,2013-03-17 21:50:00,
2013-03-17 14:55:00,59.4,43.2,30.10,WNW,293,6.0,-999.0,55,0.00,,,0.00,723,Wunderground v.1.15,2013-03-17 21:55:00,
2013-03-17 15:00:00,59.6,42.4,30.10,West,270,5.0,-999.0,53,0.00,,,0.00,720,Wunderground v.1.15,2013-03-17 22:00:00,
2013-03-17 15:05:00,59.7,42.0,30.10,WNW,293,6.0,-999.0,52,0.00,,,0.00,720,Wunderground v.1.15,2013-03-17 22:05:00,
2013-03-17 15:10:00,59.9,42.2,30.09,West,270,7.0,-999.0,52,0.00,,,0.00,727,Wunderground v.1.15,2013-03-17 22:10:00,
2013-03-17 15:15:00,60.1,42.9,30.09,WNW,293,4.0,-999.0,53,0.00,,,0.00,740,Wunderground v.1.15,2013-03-17 22:15:00,
2013-03-17 15:20:00,60.2,43.5,30.09,WNW,293,6.0,-999.0,54,0.00,,,0.00,683,Wunderground v.1.15,2013-03-17 22:20:00,
2013-03-17 15:25:00,60.2,43.5,30.09,WNW,293,6.0,-999.0,54,0.00,,,0.00,541,Wunderground v.1.15,2013-03-17 22:25:00,
2013-03-17 15:30:00,60.1,43.9,30.09,West,270,5.0,-999.0,55,0.00,,,0.00,648,Wunderground v.1.15,2013-03-17 22:30:00,
2013-03-17 15:35:00,60.0,44.3,30.08,WNW,293,5.0,-999.0,56,0.00,,,0.00,683,Wunderground v.1.15,2013-03-17 22:35:00,
2013-03-17 15:40:00,60.2,45.4,30.09,West,270,6.0,-999.0,58,0.00,,,0.00,674,Wunderground v.1.15,2013-03-17 22:40:00,
2013-03-17 15:45:00,60.1,45.7,30.08,West,270,7.0,-999.0,59,0.00,,,0.00,662,Wunderground v.1.15,2013-03-17 22:45:00,
2013-03-17 15:50:00,59.9,45.1,30.09,West,270,5.0,-999.0,58,0.00,,,0.00,484,Wunderground v.1.15,2013-03-17 22:50:00,
2013-03-17 15:55:00,59.7,44.9,30.09,NW,315,8.0,-999.0,58,0.00,,,0.00,348,Wunderground v.1.15,2013-03-17 22:55:00,
2013-03-17 16:00:00,59.6,45.2,30.09,WNW,293,5.0,-999.0,59,0.00,,,0.00,544,Wunderground v.1.15,2013-03-17 23:00:00,
2013-03-17 16:05:00,59.6,45.2,30.09,WNW,293,8.0,-999.0,59,0.00,,,0.00,613,Wunderground v.1.15,2013-03-17 23:05:00,
2013-03-17 16:10:00,59.5,45.2,30.08,WNW,293,6.0,-999.0,59,0.00,,,0.00,601,Wunderground v.1.15,2013-03-17 23:10:00,
2013-03-17 16:15:00,59.5,45.6,30.09,NW,315,7.0,-999.0,60,0.00,,,0.00,589,Wunderground v.1.15,2013-03-17 23:15:00,
2013-03-17 16:20:00,59.5,46.0,30.09,West,270,7.0,-999.0,61,0.00,,,0.00,572,Wunderground v.1.15,2013-03-17 23:20:00,
2013-03-17 16:25:00,59.3,45.0,30.09,West,270,7.0,-999.0,59,0.00,,,0.00,512,Wunderground v.1.15,2013-03-17 23:25:00,
2013-03-17 16:30:00,58.9,44.6,30.09,West,270,11.0,-999.0,59,0.00,,,0.00,555,Wunderground v.1.15,2013-03-17 23:30:00,
2013-03-17 16:35:00,58.6,44.8,30.09,WSW,248,7.0,-999.0,60,0.00,,,0.00,538,Wunderground v.1.15,2013-03-17 23:35:00,
2013-03-17 16:40:00,58.5,44.7,30.09,WNW,293,9.0,-999.0,60,0.00,,,0.00,506,Wunderground v.1.15,2013-03-17 23:40:00,
2013-03-17 16:45:00,58.2,45.2,30.09,West,270,9.0,-999.0,62,0.00,,,0.00,485,Wunderground v.1.15,2013-03-17 23:45:00,
2013-03-17 16:50:00,58.0,45.9,30.10,WNW,293,9.0,-999.0,64,0.00,,,0.00,454,Wunderground v.1.15,2013-03-17 23:50:00,
2013-03-17 16:55:00,57.5,45.0,30.10,WNW,293,9.0,-999.0,63,0.00,,,0.00,379,Wunderground v.1.15,2013-03-17 23:55:00,
2013-03-17 17:00:00,57.0,44.9,30.10,WNW,293,9.0,-999.0,64,0.00,,,0.00,460,Wunderground v.1.15,2013-03-18 00:00:00,
2013-03-17 17:05:00,56.4,44.4,30.10,WNW,293,11.0,-999.0,64,0.00,,,0.00,448,Wunderground v.1.15,2013-03-18 00:05:00,
2013-03-17 17:10:00,56.0,44.8,30.10,West,270,9.0,-999.0,66,0.00,,,0.00,374,Wunderground v.1.15,2013-03-18 00:10:00,
2013-03-17 17:15:00,55.8,45.0,30.10,West,270,8.0,-999.0,67,0.00,,,0.00,364,Wunderground v.1.15,2013-03-18 00:15:00,
2013-03-17 17:20:00,55.8,45.8,30.10,WNW,293,5.0,-999.0,69,0.00,,,0.00,368,Wunderground v.1.15,2013-03-18 00:20:00,
2013-03-17 17:25:00,55.9,45.9,30.10,West,270,9.0,-999.0,69,0.00,,,0.00,353,Wunderground v.1.15,2013-03-18 00:25:00,
2013-03-17 17:30:00,55.6,44.8,30.10,West,270,8.0,-999.0,67,0.00,,,0.00,339,Wunderground v.1.15,2013-03-18 00:30:00,
2013-03-17 17:35:00,55.1,44.3,30.10,NW,315,10.0,-999.0,67,0.00,,,0.00,349,Wunderground v.1.15,2013-03-18 00:35:00,
2013-03-17 17:40:00,54.5,43.4,30.10,WNW,293,10.0,-999.0,66,0.00,,,0.00,336,Wunderground v.1.15,2013-03-18 00:40:00,
2013-03-17 17:45:00,54.1,43.4,30.10,West,270,7.0,-999.0,67,0.00,,,0.00,315,Wunderground v.1.15,2013-03-18 00:45:00,
2013-03-17 17:50:00,54.0,43.3,30.10,WNW,293,7.0,-999.0,67,0.00,,,0.00,278,Wunderground v.1.15,2013-03-18 00:50:00,
2013-03-17 17:55:00,53.7,43.0,30.10,WNW,293,8.0,-999.0,67,0.00,,,0.00,194,Wunderground v.1.15,2013-03-18 00:55:00,
2013-03-17 18:00:00,53.3,43.0,30.10,West,270,7.0,-999.0,68,0.00,,,0.00,118,Wunderground v.1.15,2013-03-18 01:00:00,
2013-03-17 18:05:00,52.8,42.9,30.10,West,270,7.0,-999.0,69,0.00,,,0.00,83,Wunderground v.1.15,2013-03-18 01:05:00,
2013-03-17 18:10:00,52.3,42.8,30.09,West,270,6.0,-999.0,70,0.00,,,0.00,81,Wunderground v.1.15,2013-03-18 01:10:00,
2013-03-17 18:15:00,52.1,43.0,30.10,West,270,2.0,-999.0,71,0.00,,,0.00,79,Wunderground v.1.15,2013-03-18 01:15:00,
2013-03-17 18:20:00,51.8,43.1,30.09,West,270,2.0,-999.0,72,0.00,,,0.00,77,Wunderground v.1.15,2013-03-18 01:20:00,
2013-03-17 18:25:00,51.7,43.3,30.09,West,270,1.0,-999.0,73,0.00,,,0.00,77,Wunderground v.1.15,2013-03-18 01:25:00,
2013-03-17 18:29:00,51.5,43.1,30.09,West,271,1.0,6.0,73,0.00,,,0.00,70,Wunderground v.1.15,2013-03-18 01:29:00,
2013-03-17 18:30:00,51.4,42.7,30.09,West,270,1.0,-999.0,72,0.00,,,0.00,72,Wunderground v.1.15,2013-03-18 01:30:00,
2013-03-17 18:35:00,51.3,42.6,30.09,West,279,2.0,6.0,72,0.00,,,0.00,58,Wunderground v.1.15,2013-03-18 01:35:00,
2013-03-17 18:41:00,51.1,42.4,30.09,West,275,2.0,6.0,72,0.00,,,0.00,46,Wunderground v.1.15,2013-03-18 01:41:00,
2013-03-17 18:47:00,51.0,42.6,30.09,West,275,1.0,2.0,73,0.00,,,0.00,37,Wunderground v.1.15,2013-03-18 01:47:00,
2013-03-17 18:53:00,50.9,42.9,30.09,West,275,1.0,2.0,74,0.00,,,0.00,26,Wunderground v.1.15,2013-03-18 01:53:00,
2013-03-17 18:58:00,50.8,43.2,30.09,WSW,238,2.0,4.0,75,0.00,,,0.00,18,Wunderground v.1.15,2013-03-18 01:58:00,
2013-03-17 19:03:00,50.7,43.1,30.09,WSW,238,1.0,4.0,75,0.00,,,0.00,12,Wunderground v.1.15,2013-03-18 02:03:00,
2013-03-17 19:08:00,50.5,43.2,30.09,WSW,238,0.0,4.0,76,0.00,,,0.00,9,Wunderground v.1.15,2013-03-18 02:08:00,
2013-03-17 19:14:00,50.3,43.0,30.09,WSW,238,0.0,0.0,76,0.00,,,0.00,0,Wunderground v.1.15,2013-03-18 02:14:00,
2013-03-17 19:19:00,50.1,43.2,30.08,WSW,238,0.0,0.0,77,0.00,,,0.00,0,Wunderground v.1.15,2013-03-18 02:19:00,
2013-03-17 19:24:00,50.0,43.1,30.08,WSW,238,0.0,0.0,77,0.00,,,0.00,0,Wunderground v.1.15,2013-03-18 02:24:00,
2013-03-17 19:30:00,49.9,43.3,30.08,SW,235,0.0,0.0,78,0.00,,,0.00,0,Wunderground v.1.15,2013-03-18 02:30:00,
2013-03-17 19:36:00,49.7,43.1,30.08,SW,235,0.0,0.0,78,0.00,,,0.00,0,Wunderground v.1.15,2013-03-18 02:36:00,
2013-03-17 19:41:00,49.6,43.4,30.08,SW,235,0.0,0.0,79,0.00,,,0.00,0,Wunderground v.1.15,2013-03-18 02:41:00,
2013-03-17 19:47:00,49.5,43.3,30.08,SW,235,0.0,0.0,79,0.00,,,0.00,0,Wunderground v.1.15,2013-03-18 02:47:00,
2013-03-17 19:53:00,49.4,43.2,30.08,SW,235,0.0,0.0,79,0.00,,,0.00,0,Wunderground v.1.15,2013-03-18 02:53:00,
2013-03-17 19:59:00,49.2,43.3,30.09,SW,235,0.0,0.0,80,0.00,,,0.00,0,Wunderground v.1.15,2013-03-18 02:59:00,
2013-03-17 20:04:00,49.2,43.3,30.09,SW,235,0.0,0.0,80,0.00,,,0.00,0,Wunderground v.1.15,2013-03-18 03:04:00,
2013-03-17 20:10:00,49.0,43.4,30.09,SW,235,0.0,0.0,81,0.00,,,0.00,0,Wunderground v.1.15,2013-03-18 03:10:00,
2013-03-17 20:16:00,48.8,43.2,30.09,SW,235,0.0,0.0,81,0.00,,,0.00,0,Wunderground v.1.15,2013-03-18 03:16:00,
2013-03-17 20:22:00,48.6,43.0,30.09,SW,234,0.0,0.0,81,0.00,,,0.00,0,Wunderground v.1.15,2013-03-18 03:22:00,
2013-03-17 20:28:00,48.5,42.9,30.09,SW,235,0.0,0.0,81,0.00,,,0.00,0,Wunderground v.1.15,2013-03-18 03:28:00,
2013-03-17 20:34:00,48.3,42.7,30.09,SW,235,0.0,0.0,81,0.00,,,0.00,0,Wunderground v.1.15,2013-03-18 03:34:00,
2013-03-17 20:39:00,48.2,43.0,30.09,SW,234,0.0,0.0,82,0.00,,,0.00,0,Wunderground v.1.15,2013-03-18 03:39:00,
2013-03-17 20:44:00,48.1,42.9,30.09,SW,234,0.0,0.0,82,0.00,,,0.00,0,Wunderground v.1.15,2013-03-18 03:44:00,
2013-03-17 20:50:00,47.9,43.0,30.09,SW,234,0.0,0.0,83,0.00,,,0.00,0,Wunderground v.1.15,2013-03-18 03:50:00,
2013-03-17 20:56:00,47.9,43.0,30.09,SW,234,0.0,0.0,83,0.00,,,0.00,0,Wunderground v.1.15,2013-03-18 03:56:00,
2013-03-17 21:01:00,47.8,42.9,30.09,SW,234,0.0,0.0,83,0.00,,,0.00,0,Wunderground v.1.15,2013-03-18 04:01:00,
2013-03-17 21:03:00,47.7,42.8,30.09,SW,235,0.0,0.0,83,0.00,,,0.00,0,Wunderground v.1.15,2013-03-18 04:03:00,
2013-03-17 21:04:00,47.7,42.8,30.09,SW,235,0.0,0.0,83,0.00,,,0.00,0,Wunderground v.1.15,2013-03-18 04:04:00,
2013-03-17 21:09:00,47.7,42.8,30.09,SW,235,0.0,0.0,83,0.00,,,0.00,0,Wunderground v.1.15,2013-03-18 04:09:00,
2013-03-17 21:14:00,47.6,42.7,30.09,SW,235,0.0,0.0,83,0.00,,,0.00,0,Wunderground v.1.15,2013-03-18 04:14:00,
2013-03-17 21:20:00,47.5,42.9,30.09,SW,234,0.0,0.0,84,0.00,,,0.00,0,Wunderground v.1.15,2013-03-18 04:20:00,
2013-03-17 21:26:00,47.4,42.8,30.10,SW,235,0.0,0.0,84,0.00,,,0.00,0,Wunderground v.1.15,2013-03-18 04:26:00,
2013-03-17 21:31:00,47.3,42.7,30.10,SW,235,0.0,0.0,84,0.00,,,0.00,0,Wunderground v.1.15,2013-03-18 04:31:00,
2013-03-17 21:37:00,47.3,42.7,30.10,SW,235,0.0,0.0,84,0.00,,,0.00,0,Wunderground v.1.15,2013-03-18 04:37:00,
2013-03-17 21:42:00,47.2,42.6,30.10,SW,235,0.0,0.0,84,0.00,,,0.00,0,Wunderground v.1.15,2013-03-18 04:42:00,
2013-03-17 21:48:00,47.2,42.6,30.10,SW,235,0.0,0.0,84,0.00,,,0.00,0,Wunderground v.1.15,2013-03-18 04:48:00,
2013-03-17 21:54:00,47.1,42.5,30.10,SW,235,0.0,0.0,84,0.00,,,0.00,0,Wunderground v.1.15,2013-03-18 04:54:00,
2013-03-17 22:00:00,47.1,42.5,30.10,SW,235,0.0,0.0,84,0.00,,,0.00,0,Wunderground v.1.15,2013-03-18 05:00:00,
2013-03-17 22:06:00,47.0,42.4,30.10,SW,235,0.0,0.0,84,0.00,,,0.00,0,Wunderground v.1.15,2013-03-18 05:06:00,
2013-03-17 22:12:00,47.0,42.7,30.11,SW,235,0.0,0.0,85,0.00,,,0.00,0,Wunderground v.1.15,2013-03-18 05:12:00,
2013-03-17 22:18:00,47.0,42.7,30.10,SW,234,0.0,0.0,85,0.00,,,0.00,0,Wunderground v.1.15,2013-03-18 05:18:00,
2013-03-17 22:24:00,47.0,42.7,30.10,SW,235,0.0,0.0,85,0.00,,,0.00,0,Wunderground v.1.15,2013-03-18 05:24:00,
2013-03-17 22:30:00,46.9,42.6,30.10,SW,234,0.0,0.0,85,0.00,,,0.00,0,Wunderground v.1.15,2013-03-18 05:30:00,
2013-03-17 22:36:00,46.9,42.6,30.10,SW,234,0.0,0.0,85,0.00,,,0.00,0,Wunderground v.1.15,2013-03-18 05:36:00,
2013-03-17 22:41:00,46.9,42.6,30.10,SW,234,0.0,0.0,85,0.00,,,0.00,0,Wunderground v.1.15,2013-03-18 05:41:00,
2013-03-17 22:46:00,46.8,42.5,30.11,SW,226,0.0,0.0,85,0.00,,,0.00,0,Wunderground v.1.15,2013-03-18 05:46:00,
2013-03-17 22:52:00,46.7,42.4,30.11,SSE,165,0.0,0.0,85,0.00,,,0.00,0,Wunderground v.1.15,2013-03-18 05:52:00,
2013-03-17 22:57:00,46.6,42.6,30.11,SSE,156,0.0,0.0,86,0.00,,,0.00,0,Wunderground v.1.15,2013-03-18 05:57:00,
2013-03-17 23:03:00,46.5,42.5,30.11,SE,138,1.0,6.0,86,0.00,,,0.00,0,Wunderground v.1.15,2013-03-18 06:03:00,
2013-03-17 23:09:00,46.4,42.4,30.11,SE,133,2.0,6.0,86,0.00,,,0.00,0,Wunderground v.1.15,2013-03-18 06:09:00,
2013-03-17 23:14:00,46.4,42.4,30.11,ESE,121,1.0,7.0,86,0.00,,,0.00,0,Wunderground v.1.15,2013-03-18 06:14:00,
2013-03-17 23:21:00,46.7,41.8,30.11,SE,137,5.0,6.0,83,0.00,,,0.00,0,Wunderground v.1.15,2013-03-18 06:21:00,
2013-03-17 23:26:00,47.2,40.7,30.11,SE,136,5.0,6.0,78,0.00,,,0.00,0,Wunderground v.1.15,2013-03-18 06:26:00,
2013-03-17 23:31:00,47.7,40.5,30.11,SE,136,2.0,2.0,76,0.00,,,0.00,0,Wunderground v.1.15,2013-03-18 06:31:00,
2013-03-17 23:37:00,47.9,40.4,30.11,SE,136,0.0,2.0,75,0.00,,,0.00,0,Wunderground v.1.15,2013-03-18 06:37:00,
2013-03-17 23:42:00,48.1,39.9,30.11,SE,136,0.0,0.0,73,0.00,,,0.00,0,Wunderground v.1.15,2013-03-18 06:42:00,
2013-03-17 23:47:00,48.2,39.2,30.11,SE,136,0.0,0.0,71,0.00,,,0.00,0,Wunderground v.1.15,2013-03-18 06:47:00,
2013-03-17 23:53:00,48.4,39.1,30.11,SE,136,0.0,0.0,70,0.00,,,0.00,0,Wunderground v.1.15,2013-03-18 06:53:00,
2013-03-17 23:58:00,48.5,38.8,30.10,SE,136,0.0,3.0,69,0.00,,,0.00,0,Wunderground v.1.15,2013-03-18 06:58:00,